Volver al catálogo

STARLINK-34098

ActivoComunicacionesVLEO
NORAD 64080·PAYLOAD·🇺🇸 United States

Lanzado May 21, 2025 desde Cape Canaveral Space Force Station

Loading…

Próximos Pases (próximas 24 horas)

TLE

ActualizadoSource: CelesTrak SupGP

Época: Sep 15, 2026, 03:29 UTC

1 64080C 25107S   26258.14562500 -.00070840  00000+0 -25650-2 0  2587
2 64080  43.0021 211.4104 0001200 264.9865 233.5125 15.27624236    16

Sigue STARLINK-34098 en tiempo real con AllMySat

Download on the App Store